Starlink 30479

operational
NORAD ID: 57898 Int'l Des: 2023-146 Owner: SPXS Country: US Constellation: starlink
LEOCIRCULAR

关于 Starlink 30479

正在加载描述...

实时位置

正在加载3D地球...

即将过境

高度历史

Altitude vs Time

uPlot chart will show altitude changes over time

两行轨道根数

1 57898U 23146H 25305.23723090 -.00001197 00000-0 -73602-4 0 9996
2 57898 43.0028 291.3238 0000883 268.5106 91.5635 15.02525451117740
Epoch: Nov 1, 2025 • Age: 17 hours

当前状态

高度 570.2 km
速度 7.58 km/s
星下点 -38.96°S, 157.87°W
发射日期 Sep 20, 2023
运行时间 2.1 years
类型 internet

技术详情

分类 Payload
质量 730.00 kg
干质量 700.00 kg
总质量 730.00 kg
长度 0.30 m
直径 4.10 m
跨度 29.00 m
形状 Box + pan
制造商 SPXS
平台类型 Starlink V2M
阶段状态 In Orbit
所有者/国家 SPXS/US

大型星座

Loading constellations...